Weather reports worldwide

Advertisment
Miles City MT, United States of America (74230): temperature & dewpoint: 06.12.2019 22:00:00 - 12.12.2019 22:00:00 (MST)Miles City MT, United States of America (74230): wind speed & gusts: 06.12.2019 22:00:00 - 12.12.2019 22:00:00 (MST)Miles City MT, United States of America (74230): wind direction: 06.12.2019 22:00:00 - 12.12.2019 22:00:00 (MST)Miles City MT, United States of America (74230): reduced air pressure: 06.12.2019 22:00:00 - 12.12.2019 22:00:00 (MST)Miles City MT, United States of America (74230): visibility: 06.12.2019 22:00:00 - 12.12.2019 22:00:00 (MST)Miles City MT, United States of America (74230): precipitation: 06.12.2019 22:00:00 - 12.12.2019 22:00:00 (MST)
Date & Time tt [°C] td [°C] ff [km/h] ff [kn] fx [km/h] fx [kn] dd ppp [hPa] vv [km] rr [mm]
12.12.2019 22:00:00 -3,3 -5,0 8 4 - - - 1011,3 16 -
12.12.2019 21:00:00 -2,2 -4,4 11 6 - - WSW 1011,1 16 -
12.12.2019 20:00:00 -1,7 -3,9 9 5 - - WSW 1011,1 16 0,0
12.12.2019 19:00:00 -1,7 -2,8 9 5 - - SW 1011,6 16 0,0
12.12.2019 18:00:00 -2,8 -4,4 18 10 - - NE 1011,4 15 0,0
12.12.2019 17:00:00 -2,8 -3,9 8 4 - - ENE 1010,5 16 -
12.12.2019 16:00:00 -1,1 -2,8 9 5 - - SE 1010,1 16 -
12.12.2019 15:00:00 -1,1 -2,8 11 6 - - SSE 1010,2 16 -
12.12.2019 14:00:00 -2,8 -3,9 0 0 - - N 1010,8 16 -
12.12.2019 13:00:00 -3,3 -5,0 5 3 - - NE 1011,4 16 -
12.12.2019 12:00:00 -3,9 -5,0 9 5 - - ENE 1012,2 13 -
12.12.2019 11:00:00 -4,4 -5,6 8 4 - - NNW 1013,2 11 -
12.12.2019 10:00:00 -6,1 -6,7 5 3 - - ESE 1013,4 0,8 -
12.12.2019 09:00:00 -5,6 -6,1 5 3 - - E 1014,2 0,4 0,0
12.12.2019 08:00:00 -5,6 -6,1 11 6 - - ESE 1014,8 - -
12.12.2019 07:00:00 -5,6 -6,1 9 5 - - ESE 1015,2 0,4 -
12.12.2019 06:00:00 -5,6 -6,1 8 4 - - ESE 1015,7 0,4 -
12.12.2019 05:00:00 -5,0 -5,6 5 3 - - ENE 1016,2 0,4 -
12.12.2019 04:00:00 -5,0 -5,0 0 0 - - N 1017,1 0,4 -
12.12.2019 03:00:00 -5,0 -5,6 0 0 - - N 1017,2 0,4 -
12.12.2019 02:00:00 -5,6 -6,1 8 4 - - ENE 1016,3 11 -
12.12.2019 01:00:00 -3,3 -4,4 15 8 - - NNW 1016,4 16 -
12.12.2019 00:00:00 -3,9 -5,0 13 7 - - NW 1016,8 16 -
11.12.2019 23:00:00 -3,3 -4,4 13 7 - - W 1016,3 16 -
11.12.2019 22:00:00 -0,6 -2,2 18 10 - - W 1015,7 16 -
11.12.2019 21:00:00 -2,8 -3,9 15 8 - - SSW 1015,5 16 -
11.12.2019 20:00:00 -3,9 -5,6 8 4 - - S 1016,5 16 -
11.12.2019 19:00:00 -3,9 -6,1 8 4 - - SSW 1016,3 16 0,0
11.12.2019 18:00:00 -4,4 -7,2 5 3 - - S 1015,9 16 0,0
11.12.2019 17:00:00 -5,0 -7,2 8 4 - - NE 1015,9 16 -
11.12.2019 16:00:00 -5,6 -8,3 9 5 - - NNE 1015,6 16 -
11.12.2019 15:00:00 -5,0 -7,8 11 6 - - NE 1015,1 16 0,0
11.12.2019 14:00:00 -3,3 -7,2 5 3 - - SSE 1015,3 16 -
11.12.2019 13:00:00 -4,4 -7,8 13 7 - - SSE 1015,4 16 -
11.12.2019 12:00:00 -5,0 -8,3 16 9 - - SE 1015,8 16 -
11.12.2019 11:00:00 -6,7 -9,4 13 7 - - ESE 1017,1 16 -
11.12.2019 10:00:00 -8,9 -10,6 9 5 - - SSE 1018,4 16 -
11.12.2019 09:00:00 -9,4 -10,6 8 4 - - ESE 1018,8 16 -
11.12.2019 08:00:00 -11,1 -12,8 9 5 - - ENE 1019,3 16 -
11.12.2019 07:00:00 -11,1 -12,2 11 6 - - NE 1020,0 16 -
11.12.2019 06:00:00 -9,4 -11,1 13 7 - - ESE 1020,5 16 -
11.12.2019 05:00:00 -11,1 -12,8 9 5 - - NE 1021,5 16 -
11.12.2019 04:00:00 -9,4 -11,1 16 9 - - E 1022,4 10 -
11.12.2019 03:00:00 -10,0 -11,7 9 5 - - NE 1022,4 16 -
11.12.2019 02:00:00 -8,3 -10,0 15 8 - - NNE 1023,2 16 -
11.12.2019 01:00:00 -7,8 -9,4 16 9 - - NE 1023,2 16 -
11.12.2019 00:00:00 -6,7 -8,9 16 9 - - NE 1024,0 16 -
10.12.2019 23:00:00 -6,7 -8,3 15 8 - - ENE 1024,5 16 -
10.12.2019 22:00:00 -6,7 -8,3 5 3 - - N 1024,4 16 -
10.12.2019 21:00:00 -6,7 -8,3 8 4 - - W 1024,3 16 0,0
10.12.2019 20:00:00 -5,6 -7,8 8 4 - - NNW 1024,0 13 0,0
10.12.2019 19:00:00 -4,4 -7,8 8 4 - - NNE 1023,0 16 -
10.12.2019 18:00:00 -3,9 -7,8 26 14 - - N 1022,3 16 -
10.12.2019 17:00:00 -3,9 -7,2 15 8 - - NNW 1021,4 16 -
10.12.2019 16:00:00 -3,9 -7,8 8 4 - - WNW 1020,8 16 -
10.12.2019 15:00:00 -1,7 -7,2 5 3 - - WNW 1020,3 16 -
10.12.2019 14:00:00 -2,8 -7,8 11 6 - - W 1020,4 16 -
10.12.2019 13:00:00 -3,9 -9,4 13 7 - - W 1021,0 16 -
10.12.2019 12:00:00 -5,6 -10,0 13 7 - - SSW 1021,3 16 -
10.12.2019 11:00:00 -8,3 -12,2 16 9 - - S 1022,3 16 -
10.12.2019 10:00:00 -11,1 -13,3 15 8 - - SSE 1023,9 16 0,0
10.12.2019 09:00:00 -12,2 -14,4 9 5 - - SE 1024,6 11 0,0
10.12.2019 08:00:00 -13,3 -15,6 13 7 - - SSE 1024,9 15 0,0
10.12.2019 07:00:00 -13,9 -16,1 13 7 - - SSE 1025,5 16 0,0
10.12.2019 06:00:00 -14,4 -16,7 9 5 - - SSE 1026,0 16 -
10.12.2019 05:00:00 -15,0 -16,7 8 4 - - SSE 1026,1 16 -
10.12.2019 04:00:00 -15,0 -17,8 0 0 - - N 1026,4 16 -
10.12.2019 03:00:00 -15,6 -17,8 5 3 - - NW 1027,2 16 -
10.12.2019 02:00:00 -17,2 -19,4 15 8 - - NW 1027,6 16 -
10.12.2019 01:00:00 -16,7 -18,9 16 9 - - WNW 1027,4 16 -
10.12.2019 00:00:00 -15,0 -17,8 22 12 - - NNW 1027,1 16 -
09.12.2019 23:00:00 -13,3 -16,7 21 11 - - NNW 1027,2 16 -
09.12.2019 22:00:00 -12,2 -16,1 24 13 - - N 1026,3 16 -
09.12.2019 21:00:00 -11,7 -15,6 22 12 - - NNW 1025,8 16 -
09.12.2019 20:00:00 -11,1 -14,4 21 11 - - NNW 1025,0 16 -
09.12.2019 19:00:00 -11,1 -14,4 22 12 - - NNW 1024,3 16 -
09.12.2019 18:00:00 -10,6 -13,9 29 16 - - N 1023,1 16 -
09.12.2019 17:00:00 -6,7 -10,6 29 16 50 27 NNW 1021,3 16 -
09.12.2019 16:00:00 -5,0 -9,4 31 17 48 26 NNW 1019,9 16 0,0
09.12.2019 15:00:00 -4,4 -7,8 31 17 48 26 NNW 1018,8 11 0,0
09.12.2019 14:00:00 -3,9 -6,7 24 13 48 26 NW 1018,0 4,0 0,0
09.12.2019 13:00:00 -3,3 -5,6 29 16 50 27 WNW 1017,3 4,8 0,0
09.12.2019 12:00:00 -3,9 -6,7 15 8 - - WNW 1017,6 15 0,0
09.12.2019 11:00:00 -5,0 -7,2 21 11 - - W 1018,3 2,0 0,0
09.12.2019 10:00:00 -6,1 -8,3 18 10 - - W 1018,9 0,8 0,0
09.12.2019 09:00:00 -7,8 -11,1 18 10 - - W 1019,2 16 -
09.12.2019 08:00:00 -9,4 -12,2 13 7 - - WSW 1018,8 16 -
09.12.2019 07:00:00 -10,0 -12,8 16 9 - - W 1019,5 16 -
09.12.2019 06:00:00 -11,7 -13,9 9 5 - - SW 1019,9 16 -
09.12.2019 05:00:00 -12,2 -13,9 15 8 - - SW 1020,3 16 -
09.12.2019 04:00:00 -13,3 -15,6 18 10 - - WSW 1021,0 16 -
09.12.2019 03:00:00 -12,8 -15,0 9 5 - - WSW 1021,4 16 -
09.12.2019 02:00:00 -13,3 -15,6 15 8 - - SW 1021,6 16 -
09.12.2019 01:00:00 -13,3 -15,0 8 4 - - W 1022,3 16 -
09.12.2019 00:00:00 -11,7 -14,4 11 6 - - WNW 1022,3 16 -
08.12.2019 23:00:00 -11,7 -14,4 13 7 - - NW 1022,4 16 -
08.12.2019 22:00:00 -12,2 -15,0 15 8 - - NW 1021,8 16 -
08.12.2019 21:00:00 -12,2 -15,0 11 6 - - NNW 1021,6 16 -
08.12.2019 20:00:00 -12,2 -15,6 28 15 - - NNW 1021,3 16 0,0
08.12.2019 19:00:00 -12,2 -15,6 21 11 - - NW 1020,7 16 -
08.12.2019 18:00:00 -11,7 -15,0 21 11 - - NNW 1019,5 16 -
08.12.2019 17:00:00 -11,1 -14,4 29 16 - - N 1017,6 16 -
08.12.2019 16:00:00 -10,0 -13,3 29 16 - - NNW 1015,7 16 0,0
08.12.2019 15:00:00 -8,9 -11,7 24 13 - - NNW 1013,6 16 0,0
08.12.2019 14:00:00 -6,7 -8,9 28 15 - - NNW 1011,0 1,6 0,0
08.12.2019 13:00:00 -6,7 -7,8 31 17 54 29 NNE 1009,8 1,6 0,0
08.12.2019 12:00:00 -5,0 -6,7 42 23 54 29 N 1008,5 0,8 0,0
08.12.2019 11:00:00 -1,1 -1,7 22 12 - - NNW 1006,9 4,0 0,0
08.12.2019 10:00:00 -1,7 -1,7 21 11 - - NNE 1005,7 0,4 0,3
08.12.2019 09:00:00 -1,7 -2,2 21 11 - - NE 1005,6 0,4 0,0
08.12.2019 08:00:00 -1,7 -2,2 18 10 - - NNE 1005,7 3,2 -
08.12.2019 07:00:00 -1,1 -1,7 26 14 - - NE 1005,7 6 -
08.12.2019 06:00:00 -1,1 -1,7 28 15 - - NE 1005,8 8 -
08.12.2019 05:00:00 -1,1 -1,7 29 16 - - NNE 1005,4 13 -
08.12.2019 04:00:00 -1,7 -3,3 18 10 - - NNE 1005,7 16 -
08.12.2019 03:00:00 -0,6 -3,3 11 6 - - SSE 1005,7 16 -
08.12.2019 02:00:00 0,6 -2,8 11 6 - - SSE 1006,0 16 -
08.12.2019 01:00:00 -1,1 -3,3 8 4 - - SSE 1006,2 16 -
08.12.2019 00:00:00 0,0 -2,8 5 3 - - W 1007,0 16 -
07.12.2019 23:00:00 1,1 -2,8 8 4 - - NW 1007,1 16 -
07.12.2019 22:00:00 5,0 -2,2 5 3 - - SSW 1007,3 16 -
07.12.2019 21:00:00 5,0 -1,7 0 0 - - N 1007,7 16 -
07.12.2019 20:00:00 4,4 -1,7 9 5 - - NNW 1007,6 16 -
07.12.2019 19:00:00 6,1 -1,7 15 8 - - W 1007,4 16 -
07.12.2019 18:00:00 5,0 -2,2 8 4 - - NW 1007,5 16 -
07.12.2019 17:00:00 7,8 -2,2 16 9 - - W 1006,9 16 -
07.12.2019 16:00:00 10,6 -2,2 16 9 - - W 1006,5 16 -
07.12.2019 15:00:00 12,2 -2,8 18 10 - - W 1006,1 16 -
07.12.2019 14:00:00 12,8 -2,8 28 15 - - W 1006,1 16 -
07.12.2019 13:00:00 12,8 -2,2 31 17 - - W 1006,1 16 -
07.12.2019 12:00:00 8,9 -2,2 13 7 - - SSW 1007,5 16 -
07.12.2019 11:00:00 7,2 -2,8 21 11 - - SW 1008,5 16 -
07.12.2019 10:00:00 1,1 -2,2 11 6 - - S 1009,4 16 -
07.12.2019 09:00:00 -1,1 -3,3 15 8 - - S 1009,3 16 -
07.12.2019 08:00:00 -1,7 -3,9 11 6 - - SSE 1009,5 16 -
07.12.2019 07:00:00 -1,7 -3,9 9 5 - - S 1009,6 16 -
07.12.2019 06:00:00 -2,2 -3,9 11 6 - - SSE 1010,0 16 -
07.12.2019 05:00:00 -2,8 -3,9 11 6 - - SSE 1010,6 16 -
07.12.2019 04:00:00 -0,6 -3,3 9 5 - - SSE 1011,1 16 -
07.12.2019 03:00:00 -0,6 -3,9 13 7 - - SSE 1012,0 16 -
07.12.2019 02:00:00 -0,6 -3,9 11 6 - - SSE 1012,8 16 -
07.12.2019 01:00:00 0,0 -3,3 16 9 - - SSE 1013,5 16 -
07.12.2019 00:00:00 -0,6 -3,9 13 7 - - SE 1014,5 16 -
06.12.2019 23:00:00 0,0 -3,3 11 6 - - SSE 1015,5 16 -
06.12.2019 22:00:00 1,1 -3,3 15 8 - - SSE 1016,3 16 -

tt = temperature
td = dewpoint
ff = wind speed
fx = gusts
dd = wind direction
ppp = reduced air pressure
vv = visibility
rr = precipitation

Next stations